Regional Weather Roundup
Issued by NWS

Home | Current Version | Previous Version | Graphics & Text | Print | Product List | Glossary On
Versions: 1 2 3 4 5 6 7 8 9 10 11 12 13 14 15 16 17 18 19 20 21 22 23 24 25 26 27 28 29 30 31 32 33 34 35 36 37 38 39 40 41 42 43 44 45 46 47 48 49 50
000
ASUS45 KABQ 232101
RWRNM
WEATHER ROUNDUP FOR NEW MEXICO
NATIONAL WEATHER SERVICE ALBUQUERQUE NM
300 PM MDT WED JUL 23 2014

NOTE: "FAIR" MEANS FEW OR NO CLOUDS BELOW 12,000 FEET AGL WITH NO
       SIGNIFICANT WEATHER OR OBSTRUCTIONS TO VISION.

      THIS PRODUCT IS RELEASED AS TWO VERSIONS.  ONE VERSION NEAR
      THE TOP OF THE HOUR CONTAINING PRELIMINARY DATA FROM ALBUQUERQUE
      AND OTHER STATIONS.  A FINAL VERSION WITH ADDITIONAL DATA IS
      ISSUED ABOUT 10 MINUTES AFTER THE HOUR.

NMZ501-503-504-510>518-232200-
NORTHWEST PLATEAU/NORTHCENTRAL MOUNTAINS

CITY           SKY/WX    TMP DP  RH WIND       PRES   REMARKS
FARMINGTON     SUNNY     95  39  14 S12       30.25F
LOS ALAMOS     PTSUNNY   78  46  33 S3        30.48F
SANTA FE       TSTM      69  58  67 E13       30.42F
TAOS           CLOUDY    82  45  26 W17       30.44F THUNDER
ANGEL FIRE     FAIR      79  43  27 SE5       30.56F

$$
NMZ402-403-502-505>509-232200-
WESTCENTRAL MOUNTAINS/SOUTHWEST MOUNTAINS

CITY           SKY/WX    TMP DP  RH WIND       PRES   REMARKS
GALLUP         PTSUNNY   84  52  33 NE18      30.35F
GRANTS         MOSUNNY   86  48  26 E16G25    30.39F

$$
NMZ407-409-411-412-232200-
SOUTHERN DESERTS

CITY           SKY/WX    TMP DP  RH WIND       PRES   REMARKS
LORDSBURG      FAIR      91  54  27 SE20G30   30.19S
DEMING         MOSUNNY   92  52  25 SE12      30.19F
LAS CRUCES     SUNNY     94  47  20 SE14G30   30.24F
HOLLOMAN AFB   PTSUNNY   95  45  17 S16       30.18F
T OR C         PTSUNNY   86  56  35 W12       30.26S

$$
NMZ519>523-232200-
CENTRAL VALLEYS/CENTRAL HIGHLANDS

CITY           SKY/WX    TMP DP  RH WIND       PRES   REMARKS
ALBUQUERQUE    PTSUNNY   88  52  29 SW3       30.31F
DOUBLE EAGLE   PTSUNNY   84  52  32 SE9       30.36F
MORIARTY ARPT  FAIR      83  46  27 SE13G21   30.41F
CLINES CORNERS MOSUNNY   77  48  35 E14       30.47F
BELEN          FAIR      85  53  32 E8        30.31F
SOCORRO        PTSUNNY   88  52  29 SE14      30.27F

$$
NMZ524>526-539-540-232200-
SOUTHCENTRAL MOUNTAINS

CITY           SKY/WX    TMP DP  RH WIND       PRES   REMARKS
RUIDOSO        NOT AVBL

$$
NMZ527>531-232200-
NORTHEAST HIGHLANDS/NORTHEAST PLAINS

CITY           SKY/WX    TMP DP  RH WIND       PRES   REMARKS
LAS VEGAS      PTSUNNY   78  52  40 S14       30.46F
RATON          SUNNY     88  45  22 VRB6      30.39F
CLAYTON        SUNNY     93  47  20 S9G20     30.31F

$$
NMZ532>537-232200-
EASTCENTRAL PLAINS

CITY           SKY/WX    TMP DP  RH WIND       PRES   REMARKS
TUCUMCARI      MOSUNNY   96  49  20 SW8       30.24F
CANNON AFB     SUNNY     91  51  25 SE7       30.29F
CLOVIS AIRPORT NOT AVBL

$$
NMZ028-029-538-232200-
SOUTHEAST PLAINS

CITY           SKY/WX    TMP DP  RH WIND       PRES   REMARKS
ROSWELL        SUNNY     95  55  26 S8G17     30.21F
ARTESIA        SUNNY     95  48  20 S8        30.20F
CARLSBAD       MOSUNNY   97  44  16 SE10      30.16F
HOBBS          MOSUNNY   93  48  21 E12       30.22F


$$



USA.gov is the U.S. government's official web portal to all federal, state and local government web resources and services.